Voltar ao catálogo

STARLINK-34824

AtivoComunicaçõesVLEO
NORAD 65042·PAYLOAD·🇺🇸 United States

Lançado Jul 30, 2025 de Cape Canaveral Space Force Station

Loading…

Próximas Passagens (próximas 24 horas)

TLE

AtualizadoSource: CelesTrak SupGP

Época: Sep 14, 2026, 21:03 UTC

1 65042C 25161AD  26257.87756944 -.00091418  00000+0 -27001-2 0  2577
2 65042  53.1565 131.8784 0001272  81.2441 349.7512 15.34446295    13

Acompanhe STARLINK-34824 em tempo real com AllMySat

Download on the App Store